N623AZ KBXK-KTOA

Flight info

Callsign N623AZ
Flight time 2h 15m
Altitude 8500
Route KBXK BXK BLH PSP PDZ FERMY KTOA
Aircraft CC19/L-VGD/A

Departure

Time 2026-05-08 10:11
Airport Buckeye Municipal Airport (KBXK)

Arrival

Time 2026-05-08 12:26
Airport Zamperini Field (KTOA)
Time Latitude Longitude Altitude Speed Heading
2026-05-08 09:55 33.42066 -112.68401 1015 ft 0 kts 125°
2026-05-08 09:59 33.42016 -112.68360 1013 ft 19 kts 153°
2026-05-08 10:00 33.41842 -112.68348 1009 ft 31 kts 180°
2026-05-08 10:00 33.41710 -112.68354 1006 ft 24 kts 183°
2026-05-08 10:00 33.41564 -112.68357 1002 ft 14 kts 182°
2026-05-08 10:00 33.41520 -112.68435 1001 ft 14 kts 271°
2026-05-08 10:01 33.41513 -112.68550 1001 ft 10 kts 263°
2026-05-08 10:01 33.41513 -112.68563 1001 ft 0 kts 271°
2026-05-08 10:02 33.41513 -112.68564 1001 ft 0 kts 268°
2026-05-08 10:03 33.42066 -112.68401 1015 ft 0 kts 125°
2026-05-08 10:06 33.42019 -112.68353 1014 ft 17 kts 161°
2026-05-08 10:07 33.41869 -112.68347 1010 ft 24 kts 182°
2026-05-08 10:07 33.41708 -112.68352 1006 ft 23 kts 182°
2026-05-08 10:07 33.41557 -112.68358 1002 ft 13 kts 181°
2026-05-08 10:07 33.41520 -112.68440 1001 ft 14 kts 271°
2026-05-08 10:08 33.41486 -112.68492 1000 ft 7 kts
2026-05-08 10:08 33.41488 -112.68492 1000 ft 0 kts 359°
2026-05-08 10:10 33.41516 -112.68503 1001 ft 6 kts 315°
2026-05-08 10:10 33.41513 -112.68564 1001 ft 0 kts 272°
2026-05-08 10:10 33.41514 -112.68587 1001 ft 10 kts 274°
2026-05-08 10:10 33.41594 -112.68652 1003 ft 31 kts
2026-05-08 10:11 33.42102 -112.68623 1171 ft 89 kts
2026-05-08 10:11 33.42672 -112.68613 1749 ft 80 kts
2026-05-08 10:11 33.43233 -112.68596 2199 ft 79 kts
2026-05-08 10:11 33.43778 -112.68535 2642 ft 79 kts 356°
2026-05-08 10:12 33.44089 -112.68968 2943 ft 82 kts 276°
2026-05-08 10:12 33.44137 -112.69685 3230 ft 89 kts 276°
2026-05-08 10:12 33.44198 -112.70395 3610 ft 84 kts 276°
2026-05-08 10:12 33.44265 -112.71110 3880 ft 89 kts 278°
2026-05-08 10:13 33.44341 -112.71856 4115 ft 93 kts 278°
2026-05-08 10:13 33.44414 -112.72630 4366 ft 92 kts 277°
2026-05-08 10:13 33.44480 -112.73396 4612 ft 94 kts 277°
2026-05-08 10:13 33.44529 -112.74179 4841 ft 94 kts 277°
2026-05-08 10:14 33.44575 -112.74962 5069 ft 95 kts 275°
2026-05-08 10:14 33.44603 -112.75759 5283 ft 96 kts 274°
2026-05-08 10:14 33.44662 -112.76558 5501 ft 96 kts 278°
2026-05-08 10:14 33.44743 -112.77358 5712 ft 97 kts 280°
2026-05-08 10:15 33.44813 -112.78168 5921 ft 98 kts 279°
2026-05-08 10:15 33.44881 -112.78980 6120 ft 99 kts 279°
2026-05-08 10:15 33.44954 -112.79804 6306 ft 100 kts 279°
2026-05-08 10:15 33.45035 -112.80629 6488 ft 100 kts 282°
2026-05-08 10:16 33.45163 -112.81455 6651 ft 101 kts 285°
2026-05-08 10:16 33.45287 -112.82276 6821 ft 102 kts 284°
2026-05-08 10:16 33.45363 -112.83128 6973 ft 105 kts 276°
2026-05-08 10:16 33.45434 -112.83993 7140 ft 104 kts 280°
2026-05-08 10:17 33.45511 -112.84852 7290 ft 105 kts 281°
2026-05-08 10:17 33.45592 -112.85716 7452 ft 105 kts 281°
2026-05-08 10:17 33.45674 -112.86591 7605 ft 105 kts 280°
2026-05-08 10:17 33.45749 -112.87465 7749 ft 106 kts 279°
2026-05-08 10:18 33.45823 -112.88349 7901 ft 107 kts 279°
2026-05-08 10:18 33.45895 -112.89231 8047 ft 106 kts 279°
2026-05-08 10:18 33.45968 -112.90115 8186 ft 107 kts 279°
2026-05-08 10:18 33.46039 -112.91003 8326 ft 107 kts 279°
2026-05-08 10:19 33.46111 -112.91892 8471 ft 107 kts 279°
2026-05-08 10:19 33.46183 -112.92785 8619 ft 108 kts 279°
2026-05-08 10:19 33.46256 -112.93682 8765 ft 108 kts 279°
2026-05-08 10:20 33.46401 -112.95483 9051 ft 109 kts 279°
2026-05-08 10:20 33.46473 -112.96389 9190 ft 110 kts 279°
2026-05-08 10:20 33.46546 -112.97301 9335 ft 110 kts 279°
2026-05-08 10:20 33.46620 -112.98214 9477 ft 111 kts 279°
2026-05-08 10:21 33.46693 -112.99132 9618 ft 111 kts 279°
2026-05-08 10:21 33.46767 -113.00052 9764 ft 111 kts 279°
2026-05-08 10:21 33.46841 -113.00974 9895 ft 112 kts 279°
2026-05-08 10:21 33.46915 -113.01903 10026 ft 112 kts 279°
2026-05-08 10:22 33.46990 -113.02842 10168 ft 114 kts 279°
2026-05-08 10:22 33.47067 -113.03799 10264 ft 120 kts 279°
2026-05-08 10:22 33.47152 -113.04836 10256 ft 128 kts 279°
2026-05-08 10:22 33.47239 -113.05911 10278 ft 129 kts 278°
2026-05-08 10:23 33.47321 -113.06962 10374 ft 125 kts 279°
2026-05-08 10:23 33.47403 -113.07997 10435 ft 127 kts 279°
2026-05-08 10:23 33.47489 -113.09064 10437 ft 130 kts 279°
2026-05-08 10:23 33.47575 -113.10148 10441 ft 132 kts 278°
2026-05-08 10:24 33.47662 -113.11243 10440 ft 132 kts 278°
2026-05-08 10:24 33.47750 -113.12345 10440 ft 133 kts 278°
2026-05-08 10:24 33.47837 -113.13449 10438 ft 133 kts 278°
2026-05-08 10:24 33.47895 -113.14180 10439 ft 133 kts 278°
2026-05-08 10:25 33.48011 -113.15659 10445 ft 133 kts 278°
2026-05-08 10:25 33.48069 -113.16392 10443 ft 133 kts 278°
2026-05-08 10:25 33.48156 -113.17497 10444 ft 133 kts 278°
2026-05-08 10:25 33.48243 -113.18603 10446 ft 133 kts 278°
2026-05-08 10:26 33.48330 -113.19709 10453 ft 133 kts 278°
2026-05-08 10:26 33.48417 -113.20817 10455 ft 134 kts 278°
2026-05-08 10:26 33.48503 -113.21924 10464 ft 133 kts 278°
2026-05-08 10:26 33.48590 -113.23030 10465 ft 134 kts 278°
2026-05-08 10:27 33.48676 -113.24138 10469 ft 134 kts 278°
2026-05-08 10:27 33.48763 -113.25247 10474 ft 134 kts 278°
2026-05-08 10:27 33.48850 -113.26354 10477 ft 134 kts 278°
2026-05-08 10:27 33.48936 -113.27463 10483 ft 134 kts 278°
2026-05-08 10:28 33.49022 -113.28571 10488 ft 134 kts 278°
2026-05-08 10:28 33.49108 -113.29680 10489 ft 134 kts 278°
2026-05-08 10:28 33.49194 -113.30788 10496 ft 134 kts 278°
2026-05-08 10:28 33.49280 -113.31899 10499 ft 134 kts 278°
2026-05-08 10:29 33.49367 -113.33011 10504 ft 134 kts 278°
2026-05-08 10:29 33.49452 -113.34123 10510 ft 134 kts 278°
2026-05-08 10:29 33.49538 -113.35236 10514 ft 134 kts 278°
2026-05-08 10:29 33.49625 -113.36350 10518 ft 134 kts 278°
2026-05-08 10:30 33.49711 -113.37464 10524 ft 134 kts 278°
2026-05-08 10:30 33.49796 -113.38579 10523 ft 135 kts 278°
2026-05-08 10:30 33.49881 -113.39681 10529 ft 135 kts 278°
2026-05-08 10:30 33.49967 -113.40797 10535 ft 135 kts 278°
2026-05-08 10:31 33.50054 -113.41920 10540 ft 136 kts 278°
2026-05-08 10:31 33.50139 -113.43045 10543 ft 135 kts 278°
2026-05-08 10:31 33.50225 -113.44165 10546 ft 135 kts 278°
2026-05-08 10:31 33.50311 -113.45288 10547 ft 135 kts 278°
2026-05-08 10:32 33.50396 -113.46410 10550 ft 135 kts 278°
2026-05-08 10:32 33.50482 -113.47530 10555 ft 135 kts 278°
2026-05-08 10:32 33.50567 -113.48653 10559 ft 135 kts 278°
2026-05-08 10:32 33.50653 -113.49773 10562 ft 135 kts 278°
2026-05-08 10:33 33.50738 -113.50893 10565 ft 135 kts 278°
2026-05-08 10:33 33.50822 -113.52011 10565 ft 135 kts 278°
2026-05-08 10:33 33.50907 -113.53130 10568 ft 135 kts 278°
2026-05-08 10:33 33.50992 -113.54251 10570 ft 135 kts 278°
2026-05-08 10:34 33.51077 -113.55372 10568 ft 135 kts 278°
2026-05-08 10:34 33.51162 -113.56494 10566 ft 135 kts 278°
2026-05-08 10:34 33.51246 -113.57618 10567 ft 135 kts 278°
2026-05-08 10:34 33.51331 -113.58741 10568 ft 136 kts 278°
2026-05-08 10:35 33.51416 -113.59867 10568 ft 136 kts 278°
2026-05-08 10:35 33.51500 -113.60993 10569 ft 136 kts 278°
2026-05-08 10:35 33.51585 -113.62120 10569 ft 136 kts 278°
2026-05-08 10:35 33.51669 -113.63246 10569 ft 136 kts 278°
2026-05-08 10:36 33.51754 -113.64373 10568 ft 136 kts 278°
2026-05-08 10:36 33.51838 -113.65501 10569 ft 136 kts 277°
2026-05-08 10:36 33.51922 -113.66630 10568 ft 136 kts 278°
2026-05-08 10:36 33.52007 -113.67759 10568 ft 136 kts 278°
2026-05-08 10:37 33.52091 -113.68889 10563 ft 136 kts 277°
2026-05-08 10:37 33.52175 -113.70018 10561 ft 136 kts 277°
2026-05-08 10:37 33.52259 -113.71149 10556 ft 136 kts 277°
2026-05-08 10:37 33.52343 -113.72281 10552 ft 136 kts 278°
2026-05-08 10:38 33.52427 -113.73412 10547 ft 136 kts 277°
2026-05-08 10:38 33.52511 -113.74546 10545 ft 137 kts 277°
2026-05-08 10:38 33.52595 -113.75679 10541 ft 137 kts 278°
2026-05-08 10:38 33.52679 -113.76814 10537 ft 137 kts 277°
2026-05-08 10:39 33.52763 -113.77953 10535 ft 137 kts 277°
2026-05-08 10:39 33.52846 -113.79089 10529 ft 137 kts 277°
2026-05-08 10:39 33.52930 -113.80227 10526 ft 138 kts 277°
2026-05-08 10:39 33.53015 -113.81374 10523 ft 139 kts 277°
2026-05-08 10:40 33.53099 -113.82522 10518 ft 138 kts 278°
2026-05-08 10:40 33.53183 -113.83666 10518 ft 138 kts 278°
2026-05-08 10:40 33.53265 -113.84792 10512 ft 137 kts 277°
2026-05-08 10:40 33.53349 -113.85950 10506 ft 138 kts 277°
2026-05-08 10:41 33.53433 -113.87094 10502 ft 138 kts 277°
2026-05-08 10:41 33.53517 -113.88239 10499 ft 138 kts 277°
2026-05-08 10:41 33.53600 -113.89384 10494 ft 138 kts 277°
2026-05-08 10:41 33.53682 -113.90517 10494 ft 138 kts 277°
2026-05-08 10:42 33.53767 -113.91667 10489 ft 139 kts 277°
2026-05-08 10:42 33.53850 -113.92825 10483 ft 139 kts 277°
2026-05-08 10:42 33.53934 -113.93978 10480 ft 139 kts 277°
2026-05-08 10:42 33.54017 -113.95133 10474 ft 139 kts 277°
2026-05-08 10:43 33.54101 -113.96290 10469 ft 139 kts 277°
2026-05-08 10:43 33.54185 -113.97444 10464 ft 139 kts 277°
2026-05-08 10:43 33.54267 -113.98598 10461 ft 139 kts 277°
2026-05-08 10:43 33.54350 -113.99751 10455 ft 139 kts 277°
2026-05-08 10:44 33.54434 -114.00907 10448 ft 139 kts 278°
2026-05-08 10:44 33.54516 -114.02064 10445 ft 139 kts 277°
2026-05-08 10:44 33.54599 -114.03216 10446 ft 139 kts 278°
2026-05-08 10:44 33.54680 -114.04367 10443 ft 138 kts 278°
2026-05-08 10:45 33.54764 -114.05517 10446 ft 139 kts 277°
2026-05-08 10:45 33.54846 -114.06668 10444 ft 138 kts 278°
2026-05-08 10:45 33.54928 -114.07817 10444 ft 139 kts 277°
2026-05-08 10:45 33.55010 -114.08970 10442 ft 139 kts 277°
2026-05-08 10:46 33.55093 -114.10123 10446 ft 139 kts 277°
2026-05-08 10:46 33.55174 -114.11277 10449 ft 139 kts 277°
2026-05-08 10:46 33.55256 -114.12432 10446 ft 139 kts 277°
2026-05-08 10:46 33.55338 -114.13589 10448 ft 140 kts 277°
2026-05-08 10:47 33.55420 -114.14748 10447 ft 139 kts 277°
2026-05-08 10:47 33.55502 -114.15905 10446 ft 139 kts 277°
2026-05-08 10:47 33.55584 -114.17062 10445 ft 139 kts 277°
2026-05-08 10:47 33.55665 -114.18219 10446 ft 140 kts 277°
2026-05-08 10:48 33.55747 -114.19379 10447 ft 140 kts 277°
2026-05-08 10:48 33.55828 -114.20539 10445 ft 140 kts 277°
2026-05-08 10:48 33.55910 -114.21698 10446 ft 140 kts 277°
2026-05-08 10:48 33.55991 -114.22859 10445 ft 140 kts 277°
2026-05-08 10:49 33.56073 -114.24022 10445 ft 140 kts 277°
2026-05-08 10:49 33.56154 -114.25185 10443 ft 140 kts 277°
2026-05-08 10:49 33.56235 -114.26348 10442 ft 140 kts 277°
2026-05-08 10:49 33.56316 -114.27511 10441 ft 140 kts 277°
2026-05-08 10:50 33.56396 -114.28659 10442 ft 140 kts 277°
2026-05-08 10:50 33.56477 -114.29824 10441 ft 140 kts 277°
2026-05-08 10:50 33.56559 -114.30991 10441 ft 141 kts 277°
2026-05-08 10:50 33.56640 -114.32161 10443 ft 141 kts 277°
2026-05-08 10:51 33.56721 -114.33336 10443 ft 142 kts 277°
2026-05-08 10:51 33.56802 -114.34514 10444 ft 142 kts 277°
2026-05-08 10:51 33.56883 -114.35680 10431 ft 138 kts 277°
2026-05-08 10:51 33.56962 -114.36835 10435 ft 140 kts 277°
2026-05-08 10:52 33.57042 -114.37998 10435 ft 140 kts 277°
2026-05-08 10:52 33.57123 -114.39165 10434 ft 140 kts 277°
2026-05-08 10:52 33.57203 -114.40330 10431 ft 140 kts 277°
2026-05-08 10:52 33.57283 -114.41494 10433 ft 140 kts 277°
2026-05-08 10:53 33.57362 -114.42656 10434 ft 140 kts 277°
2026-05-08 10:53 33.57442 -114.43820 10434 ft 140 kts 277°
2026-05-08 10:53 33.57521 -114.44983 10433 ft 140 kts 277°
2026-05-08 10:53 33.57601 -114.46148 10433 ft 140 kts 277°
2026-05-08 10:54 33.57680 -114.47314 10432 ft 140 kts 277°
2026-05-08 10:54 33.57760 -114.48480 10435 ft 140 kts 277°
2026-05-08 10:54 33.57839 -114.49646 10436 ft 140 kts 277°
2026-05-08 10:54 33.57918 -114.50810 10432 ft 140 kts 277°
2026-05-08 10:55 33.57997 -114.51975 10434 ft 140 kts 277°
2026-05-08 10:55 33.58076 -114.53139 10431 ft 140 kts 277°
2026-05-08 10:55 33.58155 -114.54304 10433 ft 140 kts 277°
2026-05-08 10:55 33.58233 -114.55471 10435 ft 140 kts 277°
2026-05-08 10:56 33.58312 -114.56637 10434 ft 140 kts 277°
2026-05-08 10:56 33.58391 -114.57805 10432 ft 140 kts 277°
2026-05-08 10:56 33.58469 -114.58973 10434 ft 141 kts 277°
2026-05-08 10:56 33.58547 -114.60141 10434 ft 141 kts 277°
2026-05-08 10:57 33.58625 -114.61308 10433 ft 141 kts 277°
2026-05-08 10:57 33.58704 -114.62477 10434 ft 141 kts 277°
2026-05-08 10:57 33.58860 -114.64816 10432 ft 141 kts 277°
2026-05-08 10:58 33.58937 -114.65972 10435 ft 141 kts 277°
2026-05-08 10:58 33.59015 -114.67141 10435 ft 141 kts 277°
2026-05-08 10:58 33.59093 -114.68313 10437 ft 141 kts 277°
2026-05-08 10:58 33.59170 -114.69485 10437 ft 141 kts 277°
2026-05-08 10:59 33.59248 -114.70657 10432 ft 141 kts 277°
2026-05-08 10:59 33.59326 -114.71830 10446 ft 141 kts 277°
2026-05-08 10:59 33.59403 -114.73002 10444 ft 141 kts 277°
2026-05-08 10:59 33.59480 -114.74173 10443 ft 141 kts 277°
2026-05-08 11:00 33.59557 -114.75345 10441 ft 141 kts 277°
2026-05-08 11:00 33.59668 -114.76508 10441 ft 140 kts 285°
2026-05-08 11:00 33.59872 -114.77651 10443 ft 140 kts 285°
2026-05-08 11:00 33.60068 -114.78795 10444 ft 140 kts 285°
2026-05-08 11:01 33.60263 -114.79941 10444 ft 140 kts 285°
2026-05-08 11:01 33.60459 -114.81087 10436 ft 140 kts 285°
2026-05-08 11:01 33.60654 -114.82232 10436 ft 140 kts 285°
2026-05-08 11:01 33.60850 -114.83379 10436 ft 140 kts 285°
2026-05-08 11:02 33.61046 -114.84524 10435 ft 140 kts 285°
2026-05-08 11:02 33.61437 -114.86814 10441 ft 140 kts 285°
2026-05-08 11:02 33.61632 -114.87957 10437 ft 140 kts 285°
2026-05-08 11:03 33.61827 -114.89104 10437 ft 140 kts 285°
2026-05-08 11:03 33.62022 -114.90249 10434 ft 140 kts 285°
2026-05-08 11:03 33.62217 -114.91394 10435 ft 140 kts 285°
2026-05-08 11:03 33.62411 -114.92538 10430 ft 140 kts 285°
2026-05-08 11:04 33.62606 -114.93682 10429 ft 140 kts 285°
2026-05-08 11:04 33.62800 -114.94825 10432 ft 140 kts 285°
2026-05-08 11:04 33.62994 -114.95970 10430 ft 140 kts 285°
2026-05-08 11:04 33.63188 -114.97113 10428 ft 140 kts 285°
2026-05-08 11:05 33.63382 -114.98256 10430 ft 140 kts 285°
2026-05-08 11:05 33.63576 -114.99398 10427 ft 140 kts 285°
2026-05-08 11:05 33.63766 -115.00524 10424 ft 139 kts 285°
2026-05-08 11:05 33.63959 -115.01665 10426 ft 139 kts 285°
2026-05-08 11:06 33.64152 -115.02804 10429 ft 139 kts 285°
2026-05-08 11:06 33.64345 -115.03943 10427 ft 139 kts 285°
2026-05-08 11:06 33.64537 -115.05081 10424 ft 139 kts 285°
2026-05-08 11:06 33.64729 -115.06219 10423 ft 139 kts 285°
2026-05-08 11:07 33.64921 -115.07356 10423 ft 139 kts 285°
2026-05-08 11:07 33.65113 -115.08494 10422 ft 139 kts 285°
2026-05-08 11:07 33.65305 -115.09631 10423 ft 139 kts 285°
2026-05-08 11:07 33.65496 -115.10766 10422 ft 139 kts 285°
2026-05-08 11:08 33.65687 -115.11902 10419 ft 139 kts 285°
2026-05-08 11:08 33.65879 -115.13038 10421 ft 139 kts 285°
2026-05-08 11:08 33.66069 -115.14174 10417 ft 139 kts 285°
2026-05-08 11:08 33.66260 -115.15309 10421 ft 139 kts 285°
2026-05-08 11:09 33.66451 -115.16444 10419 ft 139 kts 285°
2026-05-08 11:09 33.66642 -115.17580 10420 ft 139 kts 285°
2026-05-08 11:09 33.66832 -115.18716 10422 ft 139 kts 285°
2026-05-08 11:09 33.67023 -115.19851 10423 ft 139 kts 285°
2026-05-08 11:10 33.67213 -115.20987 10424 ft 139 kts 285°
2026-05-08 11:10 33.67404 -115.22123 10425 ft 139 kts 285°
2026-05-08 11:10 33.67594 -115.23259 10425 ft 139 kts 285°
2026-05-08 11:10 33.67783 -115.24393 10424 ft 139 kts 285°
2026-05-08 11:11 33.67974 -115.25531 10427 ft 139 kts 285°
2026-05-08 11:11 33.68164 -115.26668 10423 ft 139 kts 285°
2026-05-08 11:11 33.68353 -115.27804 10426 ft 139 kts 285°
2026-05-08 11:11 33.68542 -115.28937 10423 ft 138 kts 285°
2026-05-08 11:12 33.68732 -115.30070 10428 ft 138 kts 285°
2026-05-08 11:12 33.68920 -115.31203 10426 ft 138 kts 285°
2026-05-08 11:12 33.69109 -115.32336 10424 ft 138 kts 285°
2026-05-08 11:12 33.69297 -115.33468 10426 ft 138 kts 285°
2026-05-08 11:13 33.69487 -115.34603 10431 ft 138 kts 285°
2026-05-08 11:13 33.69675 -115.35735 10430 ft 138 kts 285°
2026-05-08 11:13 33.69863 -115.36866 10431 ft 138 kts 285°
2026-05-08 11:13 33.70050 -115.37997 10430 ft 138 kts 285°
2026-05-08 11:14 33.70238 -115.39125 10435 ft 138 kts 285°
2026-05-08 11:14 33.70425 -115.40255 10430 ft 138 kts 285°
2026-05-08 11:14 33.70550 -115.41004 10432 ft 138 kts 285°
2026-05-08 11:14 33.70798 -115.42500 10429 ft 138 kts 284°
2026-05-08 11:15 33.70985 -115.43630 10431 ft 138 kts 284°
2026-05-08 11:15 33.71172 -115.44761 10429 ft 138 kts 285°
2026-05-08 11:15 33.71359 -115.45892 10433 ft 138 kts 284°
2026-05-08 11:15 33.71546 -115.47022 10433 ft 138 kts 284°
2026-05-08 11:16 33.71672 -115.47785 10432 ft 138 kts 284°
2026-05-08 11:16 33.71858 -115.48913 10433 ft 138 kts 284°
2026-05-08 11:16 33.72044 -115.50037 10437 ft 137 kts 284°
2026-05-08 11:16 33.72230 -115.51165 10438 ft 137 kts 284°
2026-05-08 11:17 33.72416 -115.52291 10438 ft 138 kts 284°
2026-05-08 11:17 33.72602 -115.53423 10435 ft 138 kts 284°
2026-05-08 11:17 33.72788 -115.54552 10434 ft 137 kts 284°
2026-05-08 11:17 33.72973 -115.55677 10433 ft 137 kts 284°
2026-05-08 11:18 33.73158 -115.56798 10435 ft 137 kts 284°
2026-05-08 11:18 33.73341 -115.57917 10434 ft 136 kts 284°
2026-05-08 11:18 33.73525 -115.59034 10437 ft 136 kts 284°
2026-05-08 11:18 33.73707 -115.60140 10436 ft 137 kts 284°
2026-05-08 11:19 33.73891 -115.61262 10440 ft 137 kts 284°
2026-05-08 11:19 33.74076 -115.62390 10439 ft 137 kts 284°
2026-05-08 11:19 33.74260 -115.63513 10439 ft 137 kts 284°
2026-05-08 11:19 33.74443 -115.64632 10441 ft 136 kts 284°
2026-05-08 11:20 33.74627 -115.65754 10442 ft 137 kts 284°
2026-05-08 11:20 33.74812 -115.66881 10442 ft 137 kts 284°
2026-05-08 11:20 33.74995 -115.68006 10443 ft 137 kts 284°
2026-05-08 11:20 33.75178 -115.69128 10442 ft 137 kts 284°
2026-05-08 11:21 33.75362 -115.70253 10441 ft 137 kts 284°
2026-05-08 11:21 33.75546 -115.71380 10439 ft 138 kts 284°
2026-05-08 11:21 33.75730 -115.72509 10444 ft 138 kts 284°
2026-05-08 11:21 33.75914 -115.73637 10446 ft 138 kts 284°
2026-05-08 11:22 33.76098 -115.74766 10447 ft 138 kts 283°
2026-05-08 11:22 33.76280 -115.75891 10440 ft 136 kts 283°
2026-05-08 11:22 33.76462 -115.77001 10440 ft 135 kts 283°
2026-05-08 11:22 33.76643 -115.78115 10438 ft 136 kts 283°
2026-05-08 11:23 33.76825 -115.79234 10440 ft 137 kts 283°
2026-05-08 11:23 33.77007 -115.80355 10435 ft 137 kts 283°
2026-05-08 11:23 33.77189 -115.81474 10438 ft 136 kts 283°
2026-05-08 11:23 33.77370 -115.82590 10438 ft 136 kts 283°
2026-05-08 11:24 33.77551 -115.83708 10434 ft 137 kts 283°
2026-05-08 11:24 33.77733 -115.84829 10433 ft 137 kts 283°
2026-05-08 11:24 33.77915 -115.85950 10432 ft 137 kts 283°
2026-05-08 11:24 33.78096 -115.87071 10435 ft 137 kts 283°
2026-05-08 11:25 33.78277 -115.88192 10433 ft 136 kts 283°
2026-05-08 11:25 33.78458 -115.89310 10430 ft 136 kts 283°
2026-05-08 11:25 33.78638 -115.90424 10433 ft 136 kts 283°
2026-05-08 11:25 33.78818 -115.91541 10431 ft 136 kts 283°
2026-05-08 11:26 33.78997 -115.92651 10432 ft 135 kts 283°
2026-05-08 11:26 33.79177 -115.93767 10432 ft 136 kts 283°
2026-05-08 11:26 33.79357 -115.94883 10432 ft 136 kts 283°
2026-05-08 11:26 33.79537 -115.96001 10431 ft 136 kts 283°
2026-05-08 11:27 33.79717 -115.97119 10434 ft 136 kts 283°
2026-05-08 11:27 33.79897 -115.98239 10430 ft 136 kts 283°
2026-05-08 11:27 33.80077 -115.99358 10432 ft 136 kts 283°
2026-05-08 11:27 33.80255 -116.00464 10429 ft 137 kts 283°
2026-05-08 11:28 33.80435 -116.01585 10434 ft 137 kts 283°
2026-05-08 11:28 33.80615 -116.02709 10429 ft 137 kts 283°
2026-05-08 11:28 33.80795 -116.03829 10433 ft 136 kts 283°
2026-05-08 11:28 33.80974 -116.04942 10436 ft 134 kts 283°
2026-05-08 11:29 33.81151 -116.06054 10434 ft 136 kts 283°
2026-05-08 11:29 33.81331 -116.07174 10437 ft 137 kts 283°
2026-05-08 11:29 33.81510 -116.08288 10433 ft 134 kts 283°
2026-05-08 11:29 33.81685 -116.09393 10434 ft 135 kts 283°
2026-05-08 11:30 33.81863 -116.10506 10434 ft 136 kts 283°
2026-05-08 11:30 33.82042 -116.11624 10432 ft 136 kts 283°
2026-05-08 11:30 33.82221 -116.12742 10440 ft 137 kts 283°
2026-05-08 11:30 33.82400 -116.13866 10438 ft 137 kts 283°
2026-05-08 11:31 33.82580 -116.14997 10437 ft 137 kts 283°
2026-05-08 11:31 33.82760 -116.16127 10441 ft 137 kts 283°
2026-05-08 11:31 33.82940 -116.17252 10440 ft 137 kts 282°
2026-05-08 11:31 33.83118 -116.18371 10442 ft 136 kts 283°
2026-05-08 11:32 33.83296 -116.19492 10442 ft 136 kts 283°
2026-05-08 11:32 33.83476 -116.20621 10445 ft 138 kts 283°
2026-05-08 11:32 33.83655 -116.21755 10442 ft 137 kts 283°
2026-05-08 11:32 33.83834 -116.22877 10446 ft 136 kts 283°
2026-05-08 11:33 33.84012 -116.23999 10444 ft 137 kts 283°
2026-05-08 11:33 33.84190 -116.25124 10470 ft 137 kts 283°
2026-05-08 11:33 33.84369 -116.26247 10474 ft 137 kts 283°
2026-05-08 11:33 33.84546 -116.27372 10474 ft 137 kts 283°
2026-05-08 11:34 33.84724 -116.28497 10472 ft 137 kts 283°
2026-05-08 11:34 33.84902 -116.29618 10473 ft 136 kts 283°
2026-05-08 11:34 33.85079 -116.30738 10473 ft 136 kts 283°
2026-05-08 11:34 33.85255 -116.31857 10473 ft 136 kts 283°
2026-05-08 11:35 33.85432 -116.32974 10472 ft 136 kts 283°
2026-05-08 11:35 33.85609 -116.34096 10474 ft 137 kts 283°
2026-05-08 11:35 33.85785 -116.35216 10477 ft 136 kts 283°
2026-05-08 11:35 33.85961 -116.36334 10473 ft 136 kts 283°
2026-05-08 11:36 33.86137 -116.37445 10474 ft 135 kts 283°
2026-05-08 11:36 33.86312 -116.38558 10473 ft 135 kts 283°
2026-05-08 11:36 33.86487 -116.39672 10473 ft 136 kts 283°
2026-05-08 11:36 33.86662 -116.40787 10472 ft 135 kts 283°
2026-05-08 11:37 33.86837 -116.41898 10475 ft 136 kts 283°
2026-05-08 11:37 33.87008 -116.43020 10476 ft 137 kts 280°
2026-05-08 11:37 33.87062 -116.44157 10472 ft 136 kts 275°
2026-05-08 11:37 33.87116 -116.45292 10475 ft 136 kts 275°
2026-05-08 11:38 33.87170 -116.46420 10481 ft 134 kts 275°
2026-05-08 11:38 33.87226 -116.47550 10480 ft 136 kts 275°
2026-05-08 11:38 33.87281 -116.48684 10478 ft 136 kts 275°
2026-05-08 11:38 33.87335 -116.49817 10483 ft 136 kts 275°
2026-05-08 11:39 33.87389 -116.50952 10485 ft 136 kts 275°
2026-05-08 11:39 33.87443 -116.52077 10482 ft 137 kts 276°
2026-05-08 11:39 33.87497 -116.53215 10483 ft 136 kts 276°
2026-05-08 11:39 33.87551 -116.54356 10485 ft 137 kts 276°
2026-05-08 11:40 33.87606 -116.55496 10483 ft 137 kts 276°
2026-05-08 11:40 33.87660 -116.56640 10482 ft 137 kts 276°
2026-05-08 11:40 33.87714 -116.57781 10482 ft 137 kts 276°
2026-05-08 11:40 33.87767 -116.58922 10481 ft 137 kts 276°
2026-05-08 11:41 33.87821 -116.60065 10483 ft 137 kts 276°
2026-05-08 11:41 33.87875 -116.61212 10482 ft 137 kts 276°
2026-05-08 11:41 33.87929 -116.62358 10486 ft 137 kts 276°
2026-05-08 11:41 33.87983 -116.63507 10488 ft 138 kts 276°
2026-05-08 11:42 33.88038 -116.64658 10486 ft 138 kts 276°
2026-05-08 11:42 33.88090 -116.65809 10489 ft 138 kts 276°
2026-05-08 11:42 33.88143 -116.66962 10486 ft 138 kts 276°
2026-05-08 11:42 33.88196 -116.68108 10489 ft 137 kts 276°
2026-05-08 11:43 33.88250 -116.69259 10490 ft 138 kts 276°
2026-05-08 11:43 33.88304 -116.70418 10494 ft 139 kts 276°
2026-05-08 11:43 33.88358 -116.71572 10494 ft 138 kts 276°
2026-05-08 11:43 33.88410 -116.72729 10498 ft 139 kts 276°
2026-05-08 11:44 33.88463 -116.73895 10495 ft 139 kts 276°
2026-05-08 11:44 33.88516 -116.75048 10500 ft 137 kts 277°
2026-05-08 11:44 33.88570 -116.76201 10499 ft 138 kts 276°
2026-05-08 11:44 33.88622 -116.77361 10509 ft 139 kts 276°
2026-05-08 11:45 33.88675 -116.78522 10509 ft 138 kts 276°
2026-05-08 11:45 33.88728 -116.79676 10578 ft 138 kts 276°
2026-05-08 11:45 33.88780 -116.80821 10579 ft 137 kts 276°
2026-05-08 11:45 33.88832 -116.81967 10583 ft 137 kts 276°
2026-05-08 11:46 33.88883 -116.83113 10587 ft 137 kts 276°
2026-05-08 11:46 33.88935 -116.84255 10591 ft 137 kts 276°
2026-05-08 11:46 33.88986 -116.85396 10593 ft 137 kts 275°
2026-05-08 11:46 33.89037 -116.86537 10596 ft 136 kts 276°
2026-05-08 11:47 33.89088 -116.87670 10595 ft 135 kts 275°
2026-05-08 11:47 33.89138 -116.88800 10596 ft 135 kts 275°
2026-05-08 11:47 33.89189 -116.89928 10598 ft 135 kts 275°
2026-05-08 11:47 33.89239 -116.91055 10603 ft 135 kts 275°
2026-05-08 11:48 33.89289 -116.92168 10602 ft 135 kts 275°
2026-05-08 11:48 33.89338 -116.93294 10601 ft 134 kts 275°
2026-05-08 11:48 33.89388 -116.94413 10602 ft 134 kts 275°
2026-05-08 11:48 33.89437 -116.95532 10605 ft 134 kts 275°
2026-05-08 11:49 33.89487 -116.96654 10605 ft 134 kts 275°
2026-05-08 11:49 33.89536 -116.97775 10606 ft 134 kts 275°
2026-05-08 11:49 33.89585 -116.98895 10606 ft 134 kts 275°
2026-05-08 11:49 33.89634 -117.00013 10609 ft 134 kts 275°
2026-05-08 11:50 33.89683 -117.01130 10609 ft 134 kts 275°
2026-05-08 11:50 33.89732 -117.02246 10609 ft 133 kts 275°
2026-05-08 11:50 33.89780 -117.03362 10610 ft 134 kts 275°
2026-05-08 11:50 33.89829 -117.04479 10610 ft 133 kts 275°
2026-05-08 11:51 33.89877 -117.05595 10608 ft 134 kts 275°
2026-05-08 11:51 33.89926 -117.06715 10558 ft 136 kts 275°
2026-05-08 11:51 33.89977 -117.07863 10446 ft 138 kts 275°
2026-05-08 11:51 33.90026 -117.09013 10338 ft 138 kts 275°
2026-05-08 11:52 33.90076 -117.10165 10225 ft 138 kts 275°
2026-05-08 11:52 33.90125 -117.11316 10107 ft 138 kts 275°
2026-05-08 11:52 33.90175 -117.12463 10001 ft 137 kts 275°
2026-05-08 11:52 33.90223 -117.13610 9882 ft 137 kts 275°
2026-05-08 11:53 33.90272 -117.14758 9757 ft 137 kts 275°
2026-05-08 11:53 33.90321 -117.15902 9634 ft 137 kts 275°
2026-05-08 11:53 33.90369 -117.17039 9508 ft 136 kts 275°
2026-05-08 11:53 33.90418 -117.18173 9381 ft 135 kts 275°
2026-05-08 11:54 33.90465 -117.19301 9258 ft 135 kts 275°
2026-05-08 11:54 33.90513 -117.20423 9131 ft 134 kts 275°
2026-05-08 11:54 33.90560 -117.21535 9007 ft 133 kts 275°
2026-05-08 11:54 33.90606 -117.22645 8883 ft 132 kts 275°
2026-05-08 11:55 33.90652 -117.23749 8759 ft 132 kts 275°
2026-05-08 11:55 33.90698 -117.24845 8638 ft 131 kts 275°
2026-05-08 11:55 33.90742 -117.25917 8611 ft 125 kts 275°
2026-05-08 11:55 33.90784 -117.26950 8602 ft 123 kts 275°
2026-05-08 11:56 33.90826 -117.27968 8602 ft 121 kts 275°
2026-05-08 11:56 33.90868 -117.28976 8605 ft 120 kts 275°
2026-05-08 11:56 33.90909 -117.29983 8605 ft 120 kts 275°
2026-05-08 11:56 33.90951 -117.30987 8604 ft 120 kts 275°
2026-05-08 11:57 33.90992 -117.31993 8601 ft 120 kts 275°
2026-05-08 11:57 33.91034 -117.32998 8602 ft 120 kts 275°
2026-05-08 11:57 33.91074 -117.33988 8605 ft 120 kts 275°
2026-05-08 11:57 33.91115 -117.34988 8602 ft 120 kts 275°
2026-05-08 11:58 33.91156 -117.36002 8621 ft 120 kts 275°
2026-05-08 11:58 33.91197 -117.37001 8624 ft 119 kts 275°
2026-05-08 11:58 33.91237 -117.37985 8623 ft 119 kts 275°
2026-05-08 11:59 33.91319 -117.39982 8626 ft 119 kts 275°
2026-05-08 11:59 33.91359 -117.40980 8625 ft 119 kts 275°
2026-05-08 11:59 33.91399 -117.41976 8627 ft 119 kts 275°
2026-05-08 11:59 33.91439 -117.42970 8624 ft 119 kts 274°
2026-05-08 12:00 33.91479 -117.43967 8624 ft 119 kts 275°
2026-05-08 12:00 33.91519 -117.44963 8625 ft 119 kts 275°
2026-05-08 12:00 33.91559 -117.45957 8625 ft 119 kts 275°
2026-05-08 12:00 33.91599 -117.46950 8627 ft 119 kts 275°
2026-05-08 12:01 33.91638 -117.47943 8626 ft 119 kts 275°
2026-05-08 12:01 33.91678 -117.48934 8623 ft 118 kts 275°
2026-05-08 12:01 33.91717 -117.49923 8622 ft 118 kts 275°
2026-05-08 12:01 33.91757 -117.50912 8622 ft 118 kts 275°
2026-05-08 12:02 33.91796 -117.51900 8620 ft 118 kts 274°
2026-05-08 12:02 33.91832 -117.52885 8645 ft 117 kts 273°
2026-05-08 12:02 33.91706 -117.53865 8646 ft 119 kts 261°
2026-05-08 12:02 33.91549 -117.54846 8646 ft 119 kts 261°
2026-05-08 12:03 33.91393 -117.55827 8648 ft 119 kts 262°
2026-05-08 12:03 33.91238 -117.56807 8646 ft 119 kts 262°
2026-05-08 12:03 33.91083 -117.57785 8646 ft 119 kts 262°
2026-05-08 12:03 33.90981 -117.58434 8647 ft 119 kts 262°
2026-05-08 12:04 33.90826 -117.59412 8649 ft 119 kts 262°
2026-05-08 12:04 33.90671 -117.60388 8648 ft 119 kts 262°
2026-05-08 12:04 33.90516 -117.61365 8646 ft 119 kts 262°
2026-05-08 12:04 33.90359 -117.62364 8539 ft 125 kts 262°
2026-05-08 12:05 33.90195 -117.63403 8402 ft 127 kts 262°
2026-05-08 12:05 33.90029 -117.64452 8269 ft 128 kts 262°
2026-05-08 12:05 33.89863 -117.65500 8126 ft 127 kts 262°
2026-05-08 12:05 33.89697 -117.66545 7982 ft 127 kts 262°
2026-05-08 12:06 33.89530 -117.67593 7847 ft 128 kts 262°
2026-05-08 12:06 33.89366 -117.68629 7700 ft 125 kts 262°
2026-05-08 12:06 33.89204 -117.69646 7557 ft 123 kts 262°
2026-05-08 12:06 33.89043 -117.70658 7407 ft 122 kts 262°
2026-05-08 12:07 33.88883 -117.71662 7269 ft 122 kts 262°
2026-05-08 12:07 33.88723 -117.72664 7132 ft 121 kts 263°
2026-05-08 12:07 33.88565 -117.73657 6985 ft 120 kts 263°
2026-05-08 12:07 33.88409 -117.74640 6855 ft 119 kts 263°
2026-05-08 12:08 33.88253 -117.75615 6707 ft 119 kts 263°
2026-05-08 12:08 33.88097 -117.76590 6568 ft 118 kts 263°
2026-05-08 12:08 33.87942 -117.77558 6422 ft 118 kts 263°
2026-05-08 12:08 33.87787 -117.78529 6276 ft 119 kts 263°
2026-05-08 12:09 33.87631 -117.79504 6104 ft 119 kts 263°
2026-05-08 12:09 33.87475 -117.80483 5952 ft 119 kts 263°
2026-05-08 12:09 33.87318 -117.81461 5810 ft 119 kts 263°
2026-05-08 12:09 33.87160 -117.82446 5665 ft 120 kts 263°
2026-05-08 12:10 33.87002 -117.83436 5519 ft 121 kts 263°
2026-05-08 12:10 33.86843 -117.84428 5374 ft 121 kts 263°
2026-05-08 12:10 33.86685 -117.85410 5233 ft 121 kts 263°
2026-05-08 12:10 33.86525 -117.86407 5125 ft 120 kts 263°
2026-05-08 12:11 33.86370 -117.87364 5118 ft 114 kts 263°
2026-05-08 12:11 33.86219 -117.88297 5111 ft 113 kts 263°
2026-05-08 12:11 33.86071 -117.89220 5112 ft 112 kts 263°
2026-05-08 12:11 33.85923 -117.90139 5114 ft 112 kts 264°
2026-05-08 12:12 33.85775 -117.91057 5113 ft 112 kts 263°
2026-05-08 12:12 33.85627 -117.91978 5113 ft 112 kts 264°
2026-05-08 12:12 33.85479 -117.92897 5112 ft 112 kts 264°
2026-05-08 12:12 33.85331 -117.93818 5111 ft 112 kts 264°
2026-05-08 12:13 33.85182 -117.94735 5113 ft 112 kts 263°
2026-05-08 12:13 33.85034 -117.95655 5112 ft 112 kts 264°
2026-05-08 12:13 33.84799 -117.96553 5111 ft 116 kts 245°
2026-05-08 12:13 33.84276 -117.97301 5112 ft 117 kts 234°
2026-05-08 12:14 33.83738 -117.98042 5114 ft 118 kts 235°
2026-05-08 12:14 33.83200 -117.98784 5118 ft 118 kts 235°
2026-05-08 12:14 33.82660 -117.99526 5116 ft 118 kts 235°
2026-05-08 12:14 33.82121 -118.00267 5118 ft 118 kts 235°
2026-05-08 12:15 33.81574 -118.01024 5012 ft 124 kts 235°
2026-05-08 12:15 33.81003 -118.01812 4851 ft 125 kts 234°
2026-05-08 12:15 33.80428 -118.02604 4678 ft 126 kts 234°
2026-05-08 12:15 33.79850 -118.03399 4510 ft 126 kts 234°
2026-05-08 12:16 33.79271 -118.04196 4339 ft 127 kts 233°
2026-05-08 12:16 33.78696 -118.04987 4181 ft 127 kts 233°
2026-05-08 12:16 33.78049 -118.05718 4005 ft 130 kts 215°
2026-05-08 12:16 33.77265 -118.06270 3840 ft 131 kts 214°
2026-05-08 12:17 33.76487 -118.06837 3672 ft 131 kts 214°
2026-05-08 12:17 33.75750 -118.07459 3499 ft 126 kts 230°
2026-05-08 12:17 33.75380 -118.08352 3316 ft 117 kts 259°
2026-05-08 12:17 33.75245 -118.09302 3132 ft 115 kts 261°
2026-05-08 12:18 33.75101 -118.10249 2955 ft 115 kts 261°
2026-05-08 12:18 33.74959 -118.11200 2776 ft 116 kts 260°
2026-05-08 12:18 33.74817 -118.12157 2603 ft 117 kts 259°
2026-05-08 12:18 33.74667 -118.13165 2239 ft 125 kts 258°
2026-05-08 12:19 33.74516 -118.14181 1929 ft 120 kts 258°
2026-05-08 12:19 33.74374 -118.15121 1923 ft 110 kts 258°
2026-05-08 12:19 33.74239 -118.16014 1924 ft 107 kts 258°
2026-05-08 12:19 33.74108 -118.16883 1923 ft 105 kts 257°
2026-05-08 12:20 33.73978 -118.17745 1917 ft 105 kts 257°
2026-05-08 12:20 33.73848 -118.18607 1918 ft 105 kts 258°
2026-05-08 12:20 33.73719 -118.19464 1921 ft 103 kts 257°
2026-05-08 12:20 33.73591 -118.20313 1919 ft 104 kts 258°
2026-05-08 12:21 33.73463 -118.21165 1918 ft 103 kts 257°
2026-05-08 12:21 33.73434 -118.22023 1918 ft 105 kts 286°
2026-05-08 12:21 33.73821 -118.22752 1933 ft 104 kts 306°
2026-05-08 12:21 33.74234 -118.23466 1935 ft 103 kts 306°
2026-05-08 12:22 33.74627 -118.24137 1916 ft 94 kts 306°
2026-05-08 12:22 33.74982 -118.24787 1871 ft 93 kts 298°
2026-05-08 12:22 33.75268 -118.25473 1879 ft 90 kts 297°
2026-05-08 12:22 33.75553 -118.26126 1896 ft 86 kts 299°
2026-05-08 12:23 33.75830 -118.26709 1898 ft 78 kts 301°
2026-05-08 12:23 33.76096 -118.27258 1865 ft 77 kts 300°
2026-05-08 12:23 33.76369 -118.27826 1828 ft 78 kts 303°
2026-05-08 12:23 33.76667 -118.28361 1768 ft 77 kts 307°
2026-05-08 12:24 33.76981 -118.28853 1714 ft 72 kts 310°
2026-05-08 12:24 33.77314 -118.29328 1581 ft 74 kts 310°
2026-05-08 12:24 33.77634 -118.29807 1427 ft 73 kts 310°
2026-05-08 12:24 33.77951 -118.30283 1304 ft 73 kts 310°
2026-05-08 12:25 33.78269 -118.30749 1181 ft 72 kts 309°
2026-05-08 12:25 33.78582 -118.31214 1032 ft 73 kts 309°
2026-05-08 12:25 33.78896 -118.31698 884 ft 73 kts 311°
2026-05-08 12:25 33.79202 -118.32156 721 ft 68 kts 309°
2026-05-08 12:26 33.79512 -118.32616 497 ft 71 kts 308°
2026-05-08 12:26 33.79809 -118.33065 278 ft 67 kts 307°
2026-05-08 12:26 33.80098 -118.33498 99 ft 61 kts 309°
2026-05-08 12:26 33.80321 -118.33837 89 ft 46 kts 308°
2026-05-08 12:27 33.80506 -118.34114 89 ft 34 kts 306°
2026-05-08 12:27 33.80579 -118.34350 88 ft 22 kts 289°
2026-05-08 12:27 33.80602 -118.34429 88 ft 0 kts 289°
2026-05-08 12:28 33.80589 -118.34507 87 ft 18 kts 217°
2026-05-08 12:28 33.80562 -118.34596 86 ft 17 kts 309°
2026-05-08 12:28 33.80603 -118.34703 88 ft 16 kts 213°
2026-05-08 12:28 33.80626 -118.34753 86 ft 15 kts 359°
2026-05-08 12:29 33.80657 -118.34753 86 ft 0 kts